Manistique, MI

8:51 PM EST on February 09, 2016 (GMT -0500)
Schoolcraft County

Weather History for KISQ - July, 2013

Change the Weather History Date:

Thursday, July 11, 2013

  Actual Average Record
Temperature  
Mean Temperature 62 °F -  
Max Temperature 75 °F 74 °F 92 °F (1966)
Min Temperature 50 °F 54 °F 40 °F (1968)
Degree Days  
Heating Degree Days 2    
Growing Degree Days 12 (Base 50)    
Moisture  
Dew Point 54 °F    
Average Humidity 78    
Maximum Humidity 97    
Minimum Humidity 36    
Precipitation  
Precipitation 0.00 in - - ()
Sea Level Pressure  
Sea Level Pressure 30.06 in    
Wind  
Wind Speed 5 mph (NW)    
Max Wind Speed 10 mph    
Max Gust Speed -    
Visibility 10 miles    
Events      
Averages and records for this station are not official NWS values.
T = Trace of Precipitation, MM = Missing Value Source: NWS Daily Summary

Daily Weather History Graph

Daily Weather History Graph

Search for Another Location

Airport or City:

Trip Planner

Search our weather history database for the weather conditions in past years. The results will help you decide how hot, cold, wet, or windy it might be!

Date:

Astronomy

Jul. 11, 2013 Rise Set
Actual Time 6:05 AM EDT 9:34 PM EDT
Civil Twilight 5:28 AM EDT 10:11 PM EDT
Nautical Twilight 4:38 AM EDT 11:01 PM EDT
Astronomical Twilight 3:34 AM EDT 12:04 AM EDT
Moon 9:36 AM EDT (7/11) 10:59 PM EDT (7/11)
Length of Visible Light 16h 43m
Length of Day
15h 29m
Waxing Crescent, 10% of the Moon is Illuminated
Jul 11
Waxing Crescent
Jul 15
First Quarter
Jul 22
Full
Jul 29
Last Quarter
Aug 6
New

Hourly Weather History & Observations

Time (EDT) Temp. Dew Point Humidity Pressure Visibility Wind Dir Wind Speed Gust Speed Precip Events Conditions
12:15 AM 54.3 °F 51.6 °F 91% 29.95 in 10.0 mi Calm Calm - N/A   Mostly Cloudy
12:35 AM 52.9 °F 50.9 °F 93% 29.95 in 10.0 mi WNW 3.5 mph - N/A   Scattered Clouds
12:54 AM 52.9 °F 51.1 °F 94% 29.95 in 10.0 mi Calm Calm - N/A   Clear
1:15 AM 52.9 °F 51.3 °F 94% 29.96 in 10.0 mi Calm Calm - N/A   Scattered Clouds
1:35 AM 50.9 °F 50.0 °F 97% 29.97 in 10.0 mi Calm Calm - N/A   Mostly Cloudy
1:54 AM 50.9 °F 49.3 °F 94% 29.97 in 10.0 mi North 5.8 mph - N/A   Scattered Clouds
2:15 AM 50.5 °F 49.3 °F 95% 29.98 in 10.0 mi NW 3.5 mph - N/A   Clear
2:35 AM 52.0 °F 50.2 °F 94% 29.97 in 10.0 mi WNW 4.6 mph - N/A   Clear
2:55 AM 51.1 °F 49.6 °F 95% 29.98 in 10.0 mi WNW 4.6 mph - N/A   Clear
3:15 AM 50.2 °F 48.9 °F 95% 29.98 in 10.0 mi NW 5.8 mph - N/A   Clear
3:34 AM 51.8 °F 50.2 °F 94% 29.98 in 10.0 mi NW 5.8 mph - N/A   Clear
3:55 AM 53.1 °F 51.1 °F 93% 29.99 in 10.0 mi NNW 6.9 mph - N/A   Clear
4:15 AM 53.6 °F 51.6 °F 93% 30.00 in 10.0 mi NW 5.8 mph - N/A   Clear
4:34 AM 51.8 °F 50.4 °F 95% 30.01 in 10.0 mi NNW 4.6 mph - N/A   Clear
4:55 AM 50.4 °F 49.5 °F 97% 30.01 in 10.0 mi NNW 5.8 mph - N/A   Clear
5:15 AM 50.9 °F 49.6 °F 95% 30.02 in 10.0 mi NNW 5.8 mph - N/A   Clear
5:34 AM 52.0 °F 50.0 °F 93% 30.03 in 10.0 mi NW 8.1 mph - N/A   Clear
5:55 AM 51.8 °F 49.5 °F 92% 30.03 in 10.0 mi NW 9.2 mph - N/A   Clear
6:14 AM 51.6 °F 49.3 °F 92% 30.04 in 10.0 mi NNW 6.9 mph - N/A   Clear
6:35 AM 50.2 °F 48.9 °F 95% 30.05 in 10.0 mi NNW 5.8 mph - N/A   Clear
6:54 AM 51.4 °F 49.3 °F 92% 30.05 in 10.0 mi NNW 5.8 mph - N/A   Clear
7:15 AM 52.3 °F 50.0 °F 92% 30.06 in 10.0 mi North 3.5 mph - N/A   Clear
7:35 AM 53.6 °F 50.4 °F 89% 30.07 in 10.0 mi North 5.8 mph - N/A   Clear
7:54 AM 54.9 °F 51.1 °F 87% 30.07 in 10.0 mi North 4.6 mph - N/A   Clear
8:15 AM 56.5 °F 51.8 °F 84% 30.08 in 10.0 mi North 8.1 mph - N/A   Clear
8:34 AM 57.4 °F 52.2 °F 83% 30.08 in 10.0 mi North 6.9 mph - N/A   Clear
8:55 AM 59.5 °F 53.2 °F 80% 30.09 in 10.0 mi NNW 4.6 mph - N/A   Clear
9:15 AM 61.3 °F 54.3 °F 78% 30.10 in 10.0 mi North 4.6 mph - N/A   Clear
9:34 AM 63.5 °F 54.9 °F 73% 30.10 in 10.0 mi North 5.8 mph - N/A   Clear
9:55 AM 64.2 °F 54.9 °F 72% 30.10 in 10.0 mi North 4.6 mph - N/A   Clear
10:15 AM 66.0 °F 55.4 °F 69% 30.11 in 10.0 mi NNE 3.5 mph - N/A   Clear
10:34 AM 66.9 °F 55.0 °F 66% 30.11 in 10.0 mi North 9.2 mph - N/A   Clear
10:55 AM 67.8 °F 55.2 °F 64% 30.11 in 10.0 mi NNW 10.4 mph - N/A   Clear
11:15 AM 68.7 °F 55.2 °F 62% 30.11 in 10.0 mi North 5.8 mph - N/A   Scattered Clouds
11:34 AM 69.6 °F 54.7 °F 59% 30.11 in 10.0 mi North 8.1 mph - N/A   Clear
11:55 AM 70.9 °F 54.3 °F 56% 30.11 in 10.0 mi North 5.8 mph - N/A   Clear
12:14 PM 72.5 °F 52.9 °F 50% 30.11 in 10.0 mi NNW 8.1 mph - N/A   Clear
12:35 PM 73.6 °F 53.1 °F 49% 30.11 in 10.0 mi NNW 3.5 mph - N/A   Clear
12:55 PM 74.1 °F 51.3 °F 45% 30.11 in 10.0 mi NNE 6.9 mph - N/A   Clear
1:14 PM 74.5 °F 49.3 °F 41% 30.11 in 10.0 mi NE 6.9 mph - N/A   Clear
1:35 PM 75.6 °F 47.1 °F 36% 30.11 in 10.0 mi NNE 9.2 mph - N/A   Clear
1:55 PM 75.7 °F 48.6 °F 38% 30.10 in 10.0 mi NNE 10.4 mph - N/A   Clear
2:14 PM 73.4 °F 55.2 °F 53% 30.10 in 10.0 mi South 8.1 mph - N/A   Clear
2:35 PM 70.7 °F 58.6 °F 66% 30.10 in 10.0 mi South 6.9 mph - N/A   Clear
2:54 PM 70.9 °F 56.8 °F 61% 30.10 in 10.0 mi South 9.2 mph - N/A   Clear
3:15 PM 70.2 °F 58.6 °F 67% 30.10 in 10.0 mi South 9.2 mph - N/A   Clear
3:35 PM 69.8 °F 59.0 °F 68% 30.10 in 10.0 mi South 9.2 mph - N/A   Clear
3:54 PM 69.1 °F 59.2 °F 71% 30.10 in 10.0 mi SSW 10.4 mph - N/A   Clear
4:15 PM 68.9 °F 59.7 °F 72% 30.10 in 10.0 mi SSW 8.1 mph - N/A   Clear
4:35 PM 68.2 °F 58.3 °F 71% 30.10 in 10.0 mi SSW 8.1 mph - N/A   Clear
4:54 PM 67.8 °F 57.9 °F 71% 30.10 in 10.0 mi SSW 6.9 mph - N/A   Clear
5:15 PM 69.3 °F 57.9 °F 67% 30.09 in 10.0 mi SSW 8.1 mph - N/A   Clear
5:34 PM 68.2 °F 57.6 °F 69% 30.09 in 10.0 mi SSW 8.1 mph - N/A   Clear
5:55 PM 68.9 °F 56.8 °F 65% 30.08 in 10.0 mi South 8.1 mph - N/A   Clear
6:15 PM 69.3 °F 56.5 °F 64% 30.08 in 10.0 mi South 6.9 mph - N/A   Clear
6:34 PM 68.7 °F 56.7 °F 65% 30.09 in 10.0 mi South 8.1 mph - N/A   Clear
6:55 PM 68.4 °F 57.4 °F 68% 30.09 in 10.0 mi South 6.9 mph - N/A   Clear
7:15 PM 66.6 °F 59.4 °F 78% 30.09 in 10.0 mi SSW 5.8 mph - N/A   Clear
7:34 PM 65.3 °F 59.2 °F 81% 30.09 in 10.0 mi SSW 6.9 mph - N/A   Clear
7:55 PM 65.3 °F 58.1 °F 77% 30.08 in 10.0 mi SSW 5.8 mph - N/A   Clear
8:15 PM 65.5 °F 57.6 °F 76% 30.08 in 10.0 mi SSW 5.8 mph - N/A   Clear
8:35 PM 64.9 °F 56.7 °F 74% 30.08 in 10.0 mi South 5.8 mph - N/A   Clear
8:55 PM 63.7 °F 57.0 °F 79% 30.07 in 10.0 mi South 6.9 mph - N/A   Clear
9:14 PM 62.4 °F 57.2 °F 83% 30.07 in 10.0 mi SSW 5.8 mph - N/A   Clear
9:35 PM 61.7 °F 56.5 °F 83% 30.08 in 10.0 mi SW 3.5 mph - N/A   Clear
9:55 PM 60.4 °F 56.1 °F 86% 30.08 in 10.0 mi Calm Calm - N/A   Clear
10:14 PM 58.6 °F 55.9 °F 91% 30.08 in 10.0 mi Calm Calm - N/A   Clear
10:35 PM 56.7 °F 54.0 °F 91% 30.08 in 10.0 mi Calm Calm - N/A   Clear
10:55 PM 57.0 °F 54.5 °F 91% 30.08 in 10.0 mi Calm Calm - N/A   Clear
11:15 PM 53.4 °F 51.8 °F 94% 30.08 in 10.0 mi Calm Calm - N/A   Clear
11:35 PM 51.8 °F 50.5 °F 95% 30.08 in 10.0 mi Calm Calm - N/A   Clear
11:55 PM 53.2 °F 51.6 °F 94% 30.09 in 10.0 mi Calm Calm - N/A   Clear